Location: Cerezo de Arriba
(41.2389°N, 3.5585°W)
Time: 04:00:43
(UTC+00:00)

Helios 1B rocket - Pass Details

Date: 19 May 2025
Orbit: 497 x 502 km, 98.2° (Epoch: 23 June)

Event Time Altitude Azimuth Distance (km) Brightness Sun altitude
Exits shadow 20:51:42 - 186° (S) 1,788 4.6 -13.4°
Reaches altitude 10° 20:51:56 10° 187° (S) 1,692 4.5 -13.4°
Maximum altitude 20:55:25 43° 260° (W) 714 3.2 -13.9°
Drops below altitude 10° 20:58:55 10° 333° (NNW) 1,708 6.0 -14.4°
Sets 21:01:05 0° 340° (NNW) 2,598 7.0 -14.7°
